Flag for New Zealand Weather past 2 weeks in Christchurch, New Zealand

Now
30 °F

Chilly.


Feels Like: 30 °F
Forecast: 36 / 67 °F
Wind: No wind

Location: Christchurch Airport

Current Time: Sep 23, 2014 at 4:32:34 AM

Latest Report: Sep 23, 2014 at 4:00 AM


Visibility: 12 mi

Pressure: 29.89 "Hg

Humidity: 100%

Dew point: 30 °F

Location of ChristchurchLocation

Historic Weather in Christchurch — Graph

°F

Christchurch temperature yesterday

Maximum temperature yesterday: 46 °F (at 5:00 AM)
Minimum temperature yesterday: 37 °F (at 8:30 AM)
Average temperature yesterday: 43 °F

Past Weeks' High & Low Weather Summary

 TemperatureHumidityPressure
High72 °F (Sep 12, 3:30 PM)100% (Sep 8, 3:00 AM)30.36 "Hg (Sep 8, 3:00 AM)
Low30 °F (Sep 11, 4:00 AM)36% (Sep 12, 3:30 PM)29.15 "Hg (Sep 19, 2:00 PM)
Average48 °F79%29.76 "Hg
* Reported Sep 8 3:00 AM — Sep 23 3:30 AM, Christchurch, Weather by CustomWeather, © 2014

Note: Actual official high and low records may vary slightly from our data, if they occured in-between our weather recording intervals... More about our weather records

Advertising

Christchurch weather history for previous 24 hours

 ConditionsComfort  
Time TempWeatherWind HumidityBarometerVisibility
3:30 AM
Sep 23
32 °FChilly.No wind93%29.92 "Hg6 mi
3:00 AM34 °FChilly.No wind93%29.92 "HgN/A
2:30 AM34 °FChilly.1 mph93%29.92 "HgN/A
2:00 AM32 °FChilly.3 mph93%29.95 "HgN/A
1:30 AM34 °FChilly.2 mph100%29.95 "HgN/A
1:00 AM36 °FChilly.2 mph93%29.98 "HgN/A
12:30 AM37 °FChilly.5 mph87%29.98 "HgN/A
12:00 AM39 °FChilly.6 mph87%29.98 "HgN/A
11:30 PM
Sep 22
39 °FChilly.6 mph87%29.98 "HgN/A
11:00 PM39 °FPassing clouds.7 mph87%30.01 "HgN/A
10:30 PM41 °FPassing clouds.7 mph81%30.01 "HgN/A
10:00 PM41 °FOvercast.7 mph87%30.01 "HgN/A
9:30 PM43 °FOvercast.6 mph81%30.01 "HgN/A
9:00 PM43 °FPartly cloudy.7 mph81%30.01 "HgN/A
8:30 PM43 °FOvercast.6 mph81%30.01 "HgN/A
8:00 PM43 °FPassing clouds.6 mph81%29.98 "HgN/A
7:30 PM43 °FPassing clouds.6 mph76%29.98 "HgN/A
7:00 PM41 °FPassing clouds.10 mph81%29.95 "HgN/A
6:30 PM43 °FPassing clouds.10 mph76%29.95 "HgN/A
6:00 PM43 °FQuite cool.17 mph76%29.92 "HgN/A
5:30 PM45 °FPassing clouds.21 mph66%29.89 "HgN/A
5:00 PM45 °FPassing clouds.24 mph71%29.89 "HgN/A
4:30 PM45 °FPassing clouds.25 mph66%29.89 "HgN/A
4:00 PM45 °FPartly sunny.26 mph71%29.86 "HgN/A
3:30 PM46 °FPassing clouds.28 mph66%29.86 "HgN/A
3:00 PM45 °FBroken clouds.28 mph76%29.86 "HgN/A
2:30 PM45 °FBroken clouds.35 mph76%29.83 "HgN/A
2:00 PM43 °FSprinkles. Broken clouds.33 mph81%29.83 "HgN/A
1:30 PM43 °FSprinkles. Broken clouds.30 mph87%29.83 "HgN/A
1:00 PM41 °FSprinkles. Broken clouds.32 mph87%29.80 "HgN/A
12:00 PM39 °FSprinkles. Broken clouds.30 mph87%29.77 "Hg2 mi
11:30 AM37 °FRain showers. Broken clouds.36 mph93%29.74 "Hg2 mi
11:00 AM41 °FSprinkles. Partly sunny.30 mph81%29.74 "Hg6 mi
10:30 AM43 °FSprinkles. Mostly cloudy.29 mph81%29.71 "HgN/A
10:00 AM43 °FLight rain. Broken clouds.29 mph81%29.68 "HgN/A
9:30 AM41 °FLight rain. Mostly cloudy.25 mph87%29.68 "HgN/A
9:00 AM41 °FSprinkles. Broken clouds.26 mph87%29.65 "HgN/A
8:30 AM37 °FSprinkles. Broken clouds.35 mph93%29.62 "Hg4 mi
8:00 AM41 °FSprinkles. Broken clouds.33 mph87%29.59 "Hg3 mi
7:30 AM41 °FSprinkles. Broken clouds.31 mph87%29.53 "HgN/A
7:00 AM41 °FSprinkles. Broken clouds.32 mph87%29.53 "Hg3 mi
6:30 AM41 °FLight rain. Broken clouds.29 mph87%29.50 "HgN/A
6:00 AM41 °FSprinkles. Partly sunny.30 mph93%29.45 "Hg6 mi
5:30 AM45 °FBroken clouds.25 mph76%29.42 "HgN/A
5:00 AM46 °FLight rain. Passing clouds.18 mph71%29.39 "HgN/A
4:30 AM45 °FPassing clouds.21 mph71%29.36 "HgN/A
4:00 AM45 °FPartly cloudy.18 mph81%29.36 "HgN/A
Weather by CustomWeather, © 2014

See weather overviewHow to use our weather pages